Regional Weather Roundup
Issued by NWS

Home | Current Version | Previous Version | Text Only | Print | Product List | Glossary On
Versions: 1 2 3 4 5 6 7 8 9 10 11 12 13 14 15 16 17 18 19 20 21 22 23 24 25 26 27 28 29 30 31 32 33 34 35 36 37 38 39 40 41 42 43 44 45 46 47 48 49 50
000
ASUS43 KMPX 291801
RWRMN
WEATHER ROUNDUP FOR MINNESOTA
NATIONAL WEATHER SERVICE TWIN CITIES/CHANHASSEN MN
100 PM CDT THU SEP 29 2016


NOTE: "FAIR" INDICATES FEW OR NO CLOUDS BELOW 12,000 FEET WITH NO
SIGNIFICANT WEATHER AND/OR OBSTRUCTIONS TO VISIBILITY. N/A MEANS
CURRENT SKY AND/OR WEATHER CONDITIONS ARE NOT AVAILABLE.

MNZ060>063-068>070-291900-
   Twin Cities Metro

CITY           SKY/WX    TMP DP  RH WIND       PRES   REMARKS
TWIN CITIES    FAIR      63  49  60 NE7       30.47F
6HR MIN TEMP:  46; 6HR MAX TEMP:  63;

ST PAUL        PTSUNNY   62  50  64 N7        30.48S
CRYSTAL        PTSUNNY   62  48  60 N8        30.47S
BLAINE         PTSUNNY   63  52  67 NE7       30.47F
LAKEVILLE      FAIR      63  50  63 N6        30.46F
EDEN PRAIRIE   PTSUNNY   64  49  57 E6        30.46F
6HR MIN TEMP:  48; 6HR MAX TEMP:  64;

LAKEVILLE      FAIR      63  50  63 N6        30.46F
SOUTH ST PAUL  FAIR      64  49  59 NE3       30.47S
LAKE ELMO      CLOUDY    61  52  72 N6        30.48S
$$
MNZ001>005-007-008-013>017-022>024-027-028-291900-
   Northwest Minnesota

CITY           SKY/WX    TMP DP  RH WIND       PRES   REMARKS
BEMIDJI        CLOUDY    58  46  63 SE8       30.50S
HALLOCK        CLOUDY    63  48  59 S12       30.47S
ROSEAU         FAIR      63  48  59 SE6       30.49F HAZE
WARROAD        CLOUDY    59  48  67 NE6       30.50F
THIEF RVR FALL PTSUNNY   60  45  57 S10       30.48F
CROOKSTON      PTSUNNY   61  46  59 S9        30.47F
FOSSTON        FAIR      63  46  55 SE9       30.49F
DETROIT LAKES  CLOUDY    59  45  58 SE9       30.49F
MOORHEAD       PTSUNNY   63  45  51 SE13      30.48F
PARK RAPIDS    CLOUDY    60  42  51 SE7       30.49F
MAHNOMEN       FAIR      60  43  53 SE8       30.48F
$$
MNZ006-009>011-018-025>026-291900-
   North Central Minnesota

CITY           SKY/WX    TMP DP  RH WIND       PRES   REMARKS
BAUDETTE       CLOUDY    58  45  62 S6        30.51F
FLAG ISLAND    CLOUDY    57  48  72 S6        30.50S
INTL FALLS     CLOUDY    58  48  69 SE3       30.52S
6HR MIN TEMP:  51; 6HR MAX TEMP:  58;

WASKISH        CLOUDY    59  46  63 CALM      30.51S
BIG FORK       CLOUDY    59  46  63 SE3       30.52S
GRAND RAPIDS   CLOUDY    58  48  69 VRB3      30.52F
ORR            CLOUDY    57  45  62 CALM      30.50F
COOK           CLOUDY    55  46  71 CALM      30.53F
WALKER         CLOUDY    57  46  65 SE5       30.50F
$$
MNZ012-019>021-037-291900-
   Northeast Minnesota

CITY           SKY/WX    TMP DP  RH WIND       PRES   REMARKS
DULUTH         PTSUNNY   58  48  69 E14       30.51F
6HR MIN TEMP:  53; 6HR MAX TEMP:  60;

ELY            CLOUDY    55  45  67 CALM      30.53S
HIBBING        CLOUDY    56  46  69 SE3       30.52S
EVELETH        CLOUDY    58  45  62 E3        30.53F
DULUTH HARBOR  CLOUDY    57  54  88 NE12      30.53S
TWO HARBORS    FAIR      63  54  72 E10       30.51S
SILVER BAY     FAIR      61  50  67 E9        30.51F
GRAND MARAIS     N/A     60  46  59 VRB3      30.53R
G MARAIS ARPRT CLOUDY    55  45  67 S3        30.54S
$$
MNZ029>031-032-039>041-046>048-054>057-064-291900-
   West Central Minnesota

CITY           SKY/WX    TMP DP  RH WIND       PRES   REMARKS
FERGUS FALLS   CLOUDY    61  45  55 S3        30.50F
MORRIS         PTSUNNY   63  46  55 SE12      30.47F
ALEXANDRIA     CLOUDY    60  48  64 E6        30.50F
ELBOW LAKE     CLOUDY    60  46  61 SE8       30.49F
WADENA         CLOUDY    59  45  58 SE7       30.49F
GLENWOOD       PTSUNNY   63  46  55 E9        30.49F
BENSON         CLOUDY    63  46  55 SE7       30.48F
ORTONVILLE     CLOUDY    61  46  59 CALM      30.47F
MADISON        PTSUNNY   64  52  63 NE6       30.47F
WILLMAR        CLOUDY    63  50  63 E9        30.49F
$$
MNZ033>034-036-042>043-049>051-058-059-291900-
   Central Minnesota

CITY           SKY/WX    TMP DP  RH WIND       PRES   REMARKS
ST CLOUD       CLOUDY    61  50  67 NE8       30.48F
6HR MIN TEMP:  44; 6HR MAX TEMP:  61;

SAUK CENTRE    CLOUDY    58  47  64 E7        30.49F
PAYNESVILLE    PTSUNNY   60  47  62 E8        30.49F
AITKIN         CLOUDY    61  45  55 E3        30.49F
PINE RIVER     CLOUDY    59  46  63 SE3       30.53S
BRAINERD       CLOUDY    59  45  59 VRB5      30.50F
STAPLES        CLOUDY    57  45  62 E3        30.50S
LONG PRAIRIE   CLOUDY    59  45  58 NE7       30.49F
LITTLE FALLS   CLOUDY    59  45  58 E5        30.50S
LITCHFIELD     PTSUNNY   63  52  67 NE7       30.49S
BUFFALO        FAIR      62  48  59 NE7       30.49F
MAPLE LAKE     PTSUNNY   61  51  69 NE9       30.49F
HUTCHINSON     PTSUNNY   62  50  65 NE9       30.49S
$$
MNZ037-044-045-052-053-291900-
   East Central Minnesota

CITY           SKY/WX    TMP DP  RH WIND       PRES   REMARKS
PRINCETON      CLOUDY    63  50  63 NE8       30.49S
MORA           CLOUDY    57  46  67 NE5       30.51F
CAMBRIDGE      PTSUNNY   63  48  59 NE8       30.47F
MOOSE LAKE     CLOUDY    59  48  67 E5        30.49S
HINCKLEY       CLOUDY    59  50  72 E5        30.49F
CLOQUET        PTSUNNY   57  45  62 E10       30.51S
MCGREGOR       CLOUDY    59  46  63 E7        30.51S
$$
MNZ071>073-080-081-089-090-097-098-291900-
   Southwest Minnesota

CITY           SKY/WX    TMP DP  RH WIND       PRES   REMARKS
MONTEVIDEO     CLOUDY    63  48  59 S5        30.49S
GRANITE FALLS  PTSUNNY   62  50  64 SE3       30.49F
CANBY          PTSUNNY   64  47  55 SE3       30.48F
MARSHALL       FAIR      61  48  62 VRB3      30.47F
REDWOOD FALLS  CLOUDY    62  49  62 E6        30.47F
OLIVIA         PTSUNNY   61  46  59 E7        30.47S
PIPESTONE      FAIR      63  46  55 E6        30.46S
WINDOM         PTSUNNY   63  48  59 N5        30.46F
WORTHINGTON    PTSUNNY   62  49  62 NE3       30.46F
JACKSON        FAIR      61  46  59 NE8       30.46F
TRACY          PTSUNNY   62  50  64 CALM      30.47F
$$
MNZ065>067-074>077-082>085-091>093-291900-
   South Central Minnesota

CITY           SKY/WX    TMP DP  RH WIND       PRES   REMARKS
MANKATO        FAIR      61  50  67 NE7       30.47F
ST JAMES       PTSUNNY   63  52  67 NE6       30.47F
FAIRMONT       FAIR      60  51  72 N8        30.46F
GLENCOE        FAIR      63  53  69 NE6       30.47S
FARIBAULT      FAIR      63  52  67 N7        30.47F
OWATONNA       FAIR      61  48  63 N9        30.45F
WASECA         FAIR      63  50  63 N9        30.47F
ALBERT LEA     FAIR      64  48  55 NE10      30.44F
$$
MNZ078>079-086>088-094>096-291900-
   Southeast Minnesota

CITY           SKY/WX    TMP DP  RH WIND       PRES   REMARKS
ROCHESTER      FAIR      62  52  69 N9        30.45F
6HR MIN TEMP:  49; 6HR MAX TEMP:  62;

RED WING       FAIR      66  48  52 NE3       30.43F
STANTON        FAIR      63  50  63 N5        30.45F
DODGE CENTER   FAIR      63  48  59 N7        30.45F
WINONA         FAIR      63  52  67 NW9       30.42F
AUSTIN         FAIR      64  48  55 NE9       30.43F
PRESTON        FAIR      61  51  69 N10       30.43S
$$
ABBREVIATIONS USED IN REMARKS
   TC - TEMPERATURES IN CELSIUS
  WCI - WIND CHILL INDEX
   HX - HEAT INDEX
  VSB - VISIBILITY
$$




USA.gov is the U.S. government's official web portal to all federal, state and local government web resources and services.